Regional Weather Roundup
Issued by NWS

Home | Current Version | Previous Version | Text Only | Print | Product List | Glossary On
Versions: 1 2 3 4 5 6 7 8 9 10 11 12 13 14 15 16 17 18 19 20 21 22 23 24 25 26 27 28 29 30 31 32 33 34 35 36 37 38 39 40 41 42 43 44 45 46 47 48 49 50
997
ASCA42 TJSJ 280610
RWRPR
PUERTO RICO/U.S. VIRGIN ISLANDS HOURLY WEATHER ROUNDUP
NATIONAL WEATHER SERVICE SAN JUAN PR
200 AM AST THU JUL 28 2016

PRZ001-004-280700-
PUERTO RICO

CITY           SKY/WX    TMP DP  RH WIND       PRES   REMARKS
SAN JUAN LMM   PTCLDY    82  79  89 E7        30.00F HX  93
AGUADILLA      CLEAR     77  75  94 CALM      30.02F
CEIBA          PTCLDY    82  77  83 E8        30.02F HX  91
$$

PRZ006-007-280700-
U.S. VIRGIN ISLANDS

CITY           SKY/WX    TMP DP  RH WIND       PRES   REMARKS
CHARLOTTE AMA  CLEAR     82  79  89 E8        30.00  HX  93
CHRISTIANSTED  CLEAR     79  75  89 N3        30.00F
$$

HOURLY WEATHER ROUNDUP FOR THE NEWS MEDIA

CITY           SKY/WX    TMP DP  RH WIND       PRES   REMARKS
ORLANDO        CLEAR     82  75  79 S7        30.07S
NEW YORK       PTCLDY    76  74  93 S7        29.92R
NEWARK         PTCLDY    78  71  79 SW6       29.90S
CHICAGO        PTCLDY    74  66  76 CALM      29.93F
HARTFORD       PTCLDY    70  67  90 S3        29.89S
BOSTON         PTCLDY    77  65  66 CALM      29.88S
DALLAS         CLOUDY    84  73  69 S8        29.93F HX  90
PHILADELPHIA   PTCLDY    77  73  87 CALM      29.92S
LOS ANGELES    PTCLDY    71  65  81 SW7       29.90S
WASHINGTON DC  MOCLDY    75  70  84 CALM      29.92F



USA.gov is the U.S. government's official web portal to all federal, state and local government web resources and services.